Temperature
21 21 21 21 24 25 23 23 23 23 22 21 21 22 22 22 21 20 17 17 17 17 17 17 17 17 17 17 18 18 18 17 17 17 17 17 17 17 17 17 18 18 18 18 18 18 18 18 18
21 21 21 23 25 24 23 23 23 22 22 21 21 21 21 20 19 18 17 17 17 17 17 17 17 17 17 17 17 18 18 17 17 17 17 17 17 17 17 17 17 17 18 18 18 18 18 18 18
21 21 22 25 24 24 23 23 22 22 21 21 21 21 20 19 18 18 17 17 17 17 17 17 17 17 17 17 17 17 17 17 17 17 17 17 17 17 17 17 17 17 17 17 17 17 17 17 17
21 22 23 25 23 23 23 23 23 22 21 21 21 21 19 18 18 18 17 17 17 17 17 17 17 17 17 17 17 17 17 17 17 17 17 17 17 17 17 17 17 17 17 17 17 17 17 17 17
21 24 25 24 23 23 23 23 23 23 22 21 21 21 19 18 17 17 17 17 17 17 17 17 17 17 17 17 17 17 17 17 17 17 17 17 17 17 17 17 17 17 17 17 17 17 17 17 17
23 25 25 23 23 23 23 22 23 23 22 21 21 21 19 18 17 17 17 17 17 17 17 17 17 17 17 17 17 17 17 17 17 17 17 17 17 17 17 17 17 17 17 17 17 17 17 17 17
24 25 24 24 23 23 23 22 23 23 23 22 21 21 19 18 17 17 17 17 17 17 17 17 17 17 17 17 17 17 17 17 17 17 17 17 17 17 17 17 17 17 17 17 17 17 17 17 17
23 25 24 24 23 23 23 22 22 22 22 20 21 22 20 18 17 17 17 17 17 17 17 17 17 17 17 17 17 17 17 17 17 17 17 17 17 17 17 16 16 16 16 16 16 17 17 17 17
23 25 24 24 23 23 23 23 22 21 21 20 20 20 19 18 18 18 18 17 17 17 17 17 17 17 17 17 17 17 17 17 16 16 16 16 16 16 16 16 16 16 16 16 16 16 16 16 16
24 24 24 24 24 24 23 23 22 22 22 21 20 19 18 18 18 18 18 18 18 17 17 17 17 17 17 17 17 16 16 16 16 16 16 16 16 16 16 16 16 16 16 16 16 16 16 16 16
24 24 24 23 23 23 23 22 22 23 23 22 21 19 19 18 18 18 19 18 18 18 17 17 17 17 17 17 17 17 16 16 16 16 16 16 16 16 16 16 16 16 16 16 16 16 15 15 15
24 24 23 23 22 23 23 23 22 22 22 21 20 20 19 19 19 19 19 18 18 18 17 17 17 17 17 17 17 17 17 17 16 16 16 16 16 16 16 16 15 15 15 15 15 15 15 15 15
24 23 22 22 22 22 22 22 22 21 20 20 20 19 19 19 19 19 19 18 18 18 17 17 17 17 17 17 17 17 16 16 16 16 16 16 16 16 16 16 15 15 15 15 15 15 15 15 15
23 23 23 22 22 22 22 22 22 21 20 20 20 19 19 19 19 19 19 18 18 18 18 17 17 17 17 17 17 17 16 16 16 16 16 16 16 16 16 15 15 15 15 15 15 15 15 15 15
23 24 23 23 23 22 23 23 22 21 20 20 20 20 19 19 19 19 19 18 18 18 18 17 17 17 17 17 17 16 16 16 16 16 16 16 16 16 16 15 15 15 15 15 15 15 15 15 14
24 24 23 23 23 22 23 23 22 20 21 21 20 20 19 19 19 19 18 18 18 18 18 17 17 17 17 17 16 16 16 16 16 16 16 16 16 16 15 15 15 15 15 15 15 15 15 15 14
24 24 23 23 23 23 23 23 22 20 21 21 20 20 19 19 19 18 18 18 18 18 17 17 17 17 17 17 16 16 16 16 16 16 16 16 15 15 15 15 15 15 15 15 15 14 15 14 14
23 24 23 23 23 23 23 23 23 21 21 21 21 20 20 19 19 18 18 18 18 18 18 17 17 17 17 16 16 16 16 16 15 15 15 15 15 15 15 15 15 15 15 15 14 14 14 14 14
24 24 23 23 23 23 23 23 23 22 21 21 21 21 20 20 19 19 18 18 18 18 18 17 17 17 17 16 16 16 16 16 15 15 15 15 15 15 15 15 15 15 15 14 14 14 14 14 14
24 24 24 23 23 23 23 23 23 22 21 21 21 21 20 20 19 19 18 18 18 18 18 17 17 17 17 16 16 16 16 16 15 15 15 15 15 15 15 15 15 15 15 14 14 14 14 14 14
23 23 23 23 23 23 23 23 23 23 21 20 20 20 20 19 19 19 18 18 18 18 18 17 17 17 17 16 16 16 16 16 15 15 15 15 15 15 15 15 15 15 15 14 14 14 14 14 14
23 23 23 23 23 23 23 23 24 23 22 21 21 20 19 19 19 18 18 18 18 17 17 17 17 17 16 16 16 16 16 16 15 15 15 15 15 15 15 15 15 15 14 14 14 14 14 14 14
23 23 23 23 23 23 23 23 24 23 22 22 21 20 19 19 18 18 18 18 18 17 17 17 17 17 16 16 16 16 15 15 15 15 15 15 15 15 15 15 15 15 14 14 14 14 14 14 14
23 23 23 23 23 23 23 23 23 23 23 22 22 20 19 19 18 18 17 17 17 17 17 17 17 16 16 16 16 16 15 15 15 15 15 15 15 15 15 15 15 14 14 14 14 14 14 14 14
23 23 23 22 22 23 23 23 23 23 22 22 21 20 19 18 18 17 17 17 17 17 17 17 16 16 16 16 16 16 15 15 15 15 15 15 15 15 15 14 14 14 14 14 14 14 14 14 14
23 23 22 22 22 23 22 23 23 22 21 20 20 19 18 18 18 17 17 17 17 17 17 16 16 16 16 16 16 15 15 15 15 15 15 15 14 14 15 14 14 14 14 14 14 14 14 14 14
23 23 23 23 22 22 23 23 22 21 21 20 20 19 18 18 17 17 17 17 17 17 17 16 16 16 16 16 16 15 15 15 15 15 15 14 14 14 14 14 14 14 14 14 14 14 14 14 14
22 23 22 22 21 21 22 23 23 22 21 21 20 19 18 17 17 17 16 16 17 16 16 16 16 16 16 16 16 15 15 15 15 15 14 14 14 14 14 14 14 14 14 14 14 14 14 14 14
22 22 22 22 22 21 21 22 22 22 21 20 19 18 17 17 17 16 16 16 16 16 16 16 16 16 16 16 15 15 15 15 15 15 15 14 14 14 14 14 14 14 14 14 14 13 13 13 13
22 22 22 21 21 21 21 22 22 21 20 20 19 18 17 16 16 16 16 16 16 16 16 16 16 16 15 16 15 15 15 15 15 15 15 14 14 14 14 14 14 14 14 14 13 13 13 13 13
Wind_Speed
1 2 2 2 2 4 7 5 4 5 4 5 6 5 6 6 5 5 3 3 4 4 5 6 6 7 8 8 9 9 10 10 11 11 11 11 11 12 12 12 11 11 11 11 11 11 11 11 11
1 1 2 1 1 5 6 5 6 7 6 5 5 5 6 7 6 5 4 3 3 5 6 8 8 8 9 9 9 10 10 10 11 11 11 11 11 11 11 12 12 12 11 11 11 11 11 12 12
2 1 1 1 4 5 6 6 7 7 5 3 4 5 5 5 5 4 4 4 4 6 8 10 9 9 9 9 9 10 10 10 11 11 11 11 11 11 12 12 12 12 12 12 12 12 12 13 13
1 1 1 5 10 8 7 7 6 6 5 4 4 6 5 5 4 5 5 5 6 7 8 10 9 9 9 9 9 9 10 10 10 11 11 11 12 12 12 12 12 12 13 12 13 13 13 13 13
1 1 4 7 9 7 6 6 4 5 5 5 5 7 7 5 6 7 6 6 7 7 8 10 10 10 10 9 9 9 10 10 11 11 11 11 12 12 12 12 12 12 12 13 13 13 13 14 13
0 1 4 8 9 7 6 5 4 6 7 6 6 7 6 5 6 6 6 6 6 6 7 8 9 9 10 10 10 10 10 11 11 11 11 11 11 12 12 12 12 12 13 13 13 14 14 14 13
2 3 6 8 8 7 5 4 4 5 6 5 4 6 6 6 5 5 5 6 6 6 6 6 8 8 9 10 11 11 11 11 11 11 11 11 11 11 11 12 12 12 12 13 13 13 14 13 13
1 3 6 6 7 7 5 5 4 4 6 4 2 4 6 8 7 6 5 5 5 5 5 6 7 7 7 9 11 10 11 11 10 10 10 9 9 10 10 11 12 12 12 12 13 13 13 13 13
0 3 5 5 5 7 6 5 4 4 6 5 4 5 7 10 8 7 5 5 5 4 4 5 5 6 6 7 8 8 8 8 7 8 7 4 7 8 9 13 12 12 12 12 11 11 10 9 11
1 4 6 5 5 6 6 4 4 5 5 5 6 6 8 9 8 7 6 5 4 4 4 4 4 5 5 5 5 5 6 5 5 6 6 6 7 8 9 11 10 10 10 10 10 8 6 4 8
4 6 7 6 6 6 6 5 4 4 4 4 5 7 9 8 6 5 4 4 3 3 3 3 3 4 4 4 4 4 4 4 5 6 6 5 6 6 6 6 6 6 5 7 6 5 7 8 8
7 7 6 6 5 5 5 5 5 3 4 4 5 8 8 7 6 4 3 3 2 2 2 2 1 2 3 3 3 3 3 3 4 4 5 4 4 4 5 4 5 4 5 5 5 5 7 8 8
7 6 6 6 5 6 6 5 4 4 4 5 7 7 7 5 4 4 3 3 2 2 3 2 2 1 2 3 2 2 3 3 4 4 3 4 3 3 3 4 4 4 4 4 5 5 7 7 8
6 7 6 5 5 5 5 4 3 3 4 6 6 6 6 4 4 4 3 3 2 2 3 3 2 1 2 2 2 2 3 3 3 3 2 3 3 3 3 4 3 4 3 4 4 6 5 6 6
6 6 6 4 3 3 3 3 2 3 5 5 5 6 5 4 3 3 3 3 2 2 2 3 2 2 2 2 2 2 2 2 2 2 2 3 3 3 3 3 3 3 3 4 4 5 5 5 5
5 4 4 3 1 2 3 2 4 3 5 4 4 5 4 4 4 3 3 3 2 2 2 3 2 3 3 2 2 1 2 2 2 2 2 2 2 2 3 2 3 3 3 3 3 3 3 4 4
4 3 3 3 1 2 2 1 3 3 4 5 4 4 4 4 4 4 4 3 3 2 2 3 3 3 3 3 2 1 1 1 1 2 2 1 1 1 2 1 2 3 2 2 2 2 2 4 4
3 3 2 2 1 2 3 3 2 3 4 4 4 4 4 4 4 4 4 4 3 3 3 3 3 3 4 3 2 2 1 1 1 1 1 1 1 1 2 2 2 2 2 2 2 3 2 3 3
1 2 1 1 1 3 4 4 3 4 4 5 5 5 4 4 3 4 4 5 4 4 4 3 4 4 3 3 2 2 2 1 1 1 1 1 0 1 1 1 1 2 2 2 2 2 3 3 2
3 2 1 1 2 3 3 4 3 3 4 4 4 4 4 3 3 4 5 5 5 4 4 4 4 4 4 2 2 1 1 1 1 1 1 1 0 1 1 2 2 2 2 2 2 2 2 1 1
3 3 2 2 2 4 4 4 4 3 3 3 4 4 4 4 4 4 5 5 5 6 5 4 5 5 4 4 2 2 2 2 2 2 1 0 0 1 1 1 1 2 2 2 3 3 3 2 1
2 1 3 4 5 3 3 3 2 3 3 2 3 4 4 3 4 3 4 6 6 6 5 5 5 5 5 5 4 3 2 2 2 1 2 2 1 1 1 1 2 2 1 2 3 3 2 2 2
1 0 3 5 5 5 4 4 1 2 1 1 2 3 3 3 3 3 3 5 6 6 5 5 5 5 5 5 4 4 3 2 2 2 2 2 2 2 2 2 2 2 2 2 2 2 3 2 2
2 3 4 5 5 5 3 5 1 1 1 1 1 1 2 2 2 2 2 2 3 5 5 5 5 5 5 5 5 4 3 3 3 3 2 2 2 2 2 2 2 2 2 2 2 3 3 3 2
4 5 4 4 4 2 1 4 0 3 2 2 1 1 0 1 1 1 1 2 3 4 5 6 6 5 5 5 5 4 4 3 3 3 3 2 2 2 2 2 2 1 1 2 2 2 2 2 3
4 6 4 3 3 2 3 4 1 2 1 1 1 1 1 1 1 1 1 2 2 3 5 6 6 6 6 5 5 4 4 3 3 3 3 3 2 2 2 2 1 1 1 1 2 2 2 2 2
4 4 4 5 5 5 3 2 2 2 1 1 2 2 2 1 1 1 1 1 2 2 4 5 6 6 6 5 5 4 4 4 3 3 3 2 3 2 3 3 2 2 2 2 2 2 2 2 1
3 3 4 5 4 5 5 5 3 2 1 1 1 2 2 2 1 1 1 1 1 2 2 3 4 5 5 5 5 4 4 4 4 3 3 3 3 3 3 3 3 3 3 2 3 3 2 2 1
5 5 5 5 5 5 5 1 2 1 0 0 1 2 2 2 2 1 1 1 1 2 2 3 3 4 4 5 5 5 5 4 4 4 4 4 4 4 4 4 4 4 4 4 4 4 3 3 3
6 6 7 7 6 6 6 2 4 1 1 0 0 1 2 2 2 2 1 2 1 1 1 2 3 3 4 4 4 5 5 4 5 4 4 4 4 4 4 5 5 4 4 4 5 5 4 4 4
Wind_Direction
173 162 207 234 191 93 79 72 78 90 76 64 57 59 67 49 40 71 76 48 35 36 41 59 54 57 63 64 67 68 70 72 75 77 77 79 80 81 79 77 75 72 69 68 69 69 68 69 67
131 168 220 245 131 106 86 82 83 73 94 104 80 68 71 70 65 85 90 59 45 50 51 60 64 67 69 69 71 70 73 75 74 73 77 80 81 78 76 75 74 72 70 68 68 71 71 70 67
156 239 297 75 78 81 96 91 94 96 98 94 82 61 56 70 75 87 86 87 72 66 63 68 60 68 70 71 72 70 73 75 75 75 78 81 80 77 74 73 72 70 69 70 71 72 74 70 66
208 189 110 90 89 76 92 108 113 113 94 75 94 87 77 62 70 90 99 91 81 74 70 70 58 64 68 74 75 75 74 74 73 74 75 77 77 75 74 71 70 69 68 69 73 74 73 70 67
230 151 111 101 92 92 93 97 111 96 88 84 91 93 91 82 89 98 100 89 82 76 73 75 62 60 63 70 75 76 77 76 75 74 74 77 77 74 72 72 71 71 70 71 74 73 72 69 66
165 131 116 108 104 105 99 96 103 90 95 101 99 99 94 106 108 105 102 93 85 81 75 80 78 64 60 64 71 74 77 78 78 75 73 77 78 75 72 71 71 73 74 74 74 72 71 67 65
81 95 105 113 116 112 99 95 90 90 92 86 97 104 115 125 117 116 107 99 90 83 77 75 80 85 82 73 70 73 76 76 75 75 74 77 77 76 74 74 73 76 78 77 76 74 72 69 65
60 120 116 116 122 110 109 104 83 79 86 89 97 106 129 141 137 129 115 104 94 84 79 77 78 73 76 83 79 76 74 73 76 77 76 79 91 90 86 85 76 76 77 78 77 76 74 71 65
158 126 115 115 120 117 125 117 97 92 107 102 84 79 112 135 143 139 128 116 101 88 81 78 81 78 74 76 83 87 91 84 96 93 91 95 85 83 86 75 78 76 76 76 76 78 79 82 80
75 102 95 96 109 120 123 111 115 127 117 109 107 107 126 144 155 152 145 132 120 104 89 83 79 79 77 75 78 72 76 78 75 79 79 71 72 71 76 89 85 83 85 87 78 85 97 75 74
75 91 105 107 107 121 119 108 108 121 104 109 131 141 146 153 162 158 145 133 119 108 96 84 81 85 79 83 71 68 73 76 73 71 78 74 75 82 77 78 89 85 85 77 83 81 63 65 65
99 90 99 107 111 121 116 115 106 95 80 90 112 136 148 159 163 166 159 152 147 137 126 106 98 100 93 86 76 62 71 73 71 68 71 78 74 69 74 75 65 63 67 69 66 65 69 67 69
103 101 91 101 111 114 112 113 104 96 95 111 121 137 149 159 165 167 163 166 160 154 151 151 153 121 98 89 81 69 67 64 79 72 65 78 84 81 79 76 67 57 61 74 70 73 72 68 66
103 110 107 101 106 116 119 116 118 108 126 129 134 143 151 153 165 168 167 167 161 151 148 149 170 148 112 100 98 75 72 76 61 67 68 79 87 91 85 84 79 67 61 70 77 75 77 74 72
129 127 123 111 114 125 147 138 133 126 154 151 149 149 152 157 163 177 175 177 165 145 151 148 153 167 153 121 98 80 79 86 72 66 64 80 82 87 87 83 84 76 72 77 77 84 81 81 83
156 164 151 121 129 167 218 158 112 140 170 171 161 155 171 178 185 187 181 185 175 165 158 149 160 179 166 147 131 102 87 77 78 75 58 76 92 90 93 97 95 89 81 81 90 91 98 91 81
177 171 153 141 140 182 208 190 123 170 187 190 186 174 183 191 201 199 195 194 186 181 175 171 168 173 167 158 153 136 106 80 69 77 70 56 81 100 118 111 121 112 103 92 93 97 96 97 89
163 165 163 163 139 197 211 219 182 177 201 202 193 193 195 202 206 204 202 200 193 186 188 184 171 175 164 172 178 154 134 110 88 82 84 65 60 115 128 152 151 130 121 113 115 113 107 101 103
151 184 190 148 165 223 228 240 235 191 205 220 213 208 210 215 203 198 200 200 200 199 197 193 189 178 176 182 191 188 178 175 151 119 107 113 103 123 146 174 156 147 138 138 134 125 129 121 113
201 215 212 156 162 234 253 260 246 214 213 225 230 217 219 228 208 198 204 204 206 204 205 201 199 185 185 193 194 189 182 176 145 125 103 91 113 142 151 171 167 166 163 167 156 152 152 138 193
221 251 258 245 199 212 256 245 209 188 194 209 227 231 224 230 237 214 207 208 209 210 207 207 201 188 186 187 177 165 168 184 174 167 164 125 149 159 162 172 182 181 192 186 188 185 188 185 197
246 264 247 235 242 236 248 282 172 176 186 199 212 215 223 228 241 231 214 210 210 211 203 206 199 192 186 186 191 195 208 208 199 185 165 167 166 174 177 179 185 190 209 195 202 208 215 216 209
300 335 231 237 251 255 234 266 157 145 195 210 202 203 211 223 238 232 218 212 209 204 200 199 193 190 186 192 193 205 214 217 201 188 175 180 159 172 184 196 204 202 207 213 216 219 233 234 240
180 183 186 216 239 244 252 254 252 91 356 7 109 168 196 216 227 237 214 198 192 189 188 190 189 188 186 190 193 199 206 213 208 206 198 191 173 177 186 197 210 214 215 213 221 224 224 243 246
220 243 233 219 220 235 166 248 256 52 22 350 344 25 75 176 208 216 198 190 181 181 184 186 187 190 189 194 197 197 202 214 220 217 209 209 196 191 191 199 215 217 218 221 221 224 229 231 240
233 254 263 275 267 256 205 240 120 79 36 360 358 36 56 80 104 159 181 177 185 183 184 190 192 194 194 198 202 206 201 208 218 221 216 216 211 202 196 201 208 208 206 199 200 225 231 235 231
231 237 277 279 273 269 236 207 179 150 112 66 68 67 49 46 54 87 140 161 175 180 189 195 195 195 198 201 203 209 209 209 215 224 220 219 218 209 206 205 205 200 197 205 196 213 211 226 230
277 221 230 250 264 260 248 238 224 174 144 59 53 53 36 34 37 47 85 140 155 170 182 184 195 195 197 200 201 206 213 214 219 221 224 224 219 213 213 213 214 209 202 208 213 217 210 204 202
205 214 233 247 263 274 271 241 79 69 45 342 30 49 34 22 22 33 51 106 124 142 157 176 179 192 196 201 203 207 211 210 213 219 223 225 223 218 219 216 218 215 211 207 209 215 208 213 214
250 242 237 251 250 254 272 270 99 79 49 305 52 62 49 37 37 46 57 74 92 117 150 177 189 196 200 204 210 213 214 212 216 220 220 221 221 220 219 219 219 218 218 218 218 217 215 218 224
Height
1519 1519 1519 1520 1519 1519 1526 1528 1526 1527 1529 1532 1532 1531 1531 1533 1535 1543 1544 1541 1540 1539 1538 1536 1535 1535 1535 1534 1534 1533 1533 1533 1533 1533 1533 1533 1533 1532 1532 1532 1532 1531 1531 1530 1530 1529 1529 1528 1527
1520 1519 1521 1521 1517 1524 1531 1528 1528 1529 1533 1534 1534 1534 1534 1537 1540 1542 1542 1541 1541 1540 1539 1537 1536 1536 1536 1536 1536 1536 1535 1535 1535 1535 1535 1535 1535 1534 1534 1534 1534 1533 1533 1532 1532 1531 1530 1530 1529
1520 1520 1523 1519 1520 1526 1531 1530 1530 1533 1535 1535 1535 1537 1538 1540 1542 1543 1543 1542 1542 1541 1541 1539 1538 1538 1538 1538 1537 1537 1537 1537 1537 1537 1537 1537 1537 1537 1536 1536 1536 1535 1535 1534 1533 1533 1532 1531 1530
1522 1523 1523 1521 1528 1529 1528 1530 1532 1534 1535 1536 1536 1538 1541 1543 1544 1544 1544 1544 1544 1543 1542 1541 1540 1540 1540 1540 1539 1539 1539 1539 1539 1539 1539 1539 1539 1539 1538 1538 1538 1537 1537 1536 1535 1535 1534 1533 1532
1523 1523 1521 1526 1530 1531 1531 1532 1533 1533 1535 1537 1538 1539 1543 1545 1545 1545 1545 1545 1546 1545 1545 1544 1543 1542 1542 1542 1541 1541 1541 1541 1541 1541 1541 1541 1541 1540 1540 1540 1539 1539 1539 1538 1537 1537 1536 1535 1534
1524 1521 1524 1530 1532 1532 1533 1534 1534 1534 1536 1539 1539 1541 1545 1546 1546 1546 1547 1547 1547 1547 1547 1546 1545 1544 1544 1544 1544 1543 1543 1543 1543 1543 1543 1542 1542 1542 1542 1542 1541 1541 1540 1540 1539 1538 1538 1537 1536
1525 1522 1526 1529 1533 1534 1535 1536 1535 1536 1537 1540 1541 1542 1545 1547 1547 1548 1548 1548 1548 1548 1548 1548 1548 1547 1546 1546 1545 1545 1545 1545 1545 1545 1544 1544 1544 1544 1544 1544 1543 1543 1542 1542 1541 1540 1539 1539 1538
1526 1525 1528 1529 1533 1535 1536 1537 1538 1538 1540 1542 1542 1542 1545 1548 1548 1549 1549 1550 1550 1550 1550 1550 1550 1550 1550 1549 1547 1547 1547 1547 1547 1546 1546 1546 1546 1546 1546 1546 1545 1545 1544 1544 1543 1542 1541 1540 1539
1527 1526 1529 1531 1533 1535 1537 1538 1540 1541 1541 1543 1544 1544 1546 1548 1549 1550 1551 1551 1551 1551 1551 1551 1552 1551 1551 1551 1549 1549 1549 1548 1549 1548 1548 1548 1549 1549 1549 1547 1547 1546 1546 1545 1545 1544 1543 1542 1541
1527 1527 1531 1532 1532 1534 1537 1538 1540 1541 1542 1543 1545 1546 1547 1548 1550 1551 1551 1552 1553 1553 1553 1553 1553 1553 1553 1552 1552 1551 1551 1551 1551 1551 1551 1551 1551 1550 1550 1549 1548 1548 1548 1547 1546 1546 1545 1545 1544
1528 1530 1533 1534 1535 1536 1538 1539 1541 1540 1541 1543 1545 1546 1548 1549 1550 1552 1552 1553 1554 1554 1554 1554 1554 1553 1553 1553 1553 1553 1553 1552 1552 1552 1552 1552 1552 1551 1551 1551 1551 1550 1550 1550 1548 1548 1548 1547 1545
1531 1533 1534 1536 1538 1538 1539 1540 1542 1542 1544 1545 1546 1547 1548 1550 1551 1552 1553 1554 1554 1554 1554 1554 1555 1555 1555 1555 1554 1554 1554 1554 1554 1553 1553 1553 1553 1553 1553 1552 1552 1552 1551 1551 1550 1549 1549 1549 1548
1532 1535 1537 1538 1539 1540 1540 1541 1543 1544 1546 1546 1547 1548 1549 1550 1551 1553 1553 1554 1554 1555 1555 1555 1555 1556 1556 1555 1555 1555 1555 1555 1555 1554 1554 1554 1554 1554 1554 1554 1553 1553 1553 1552 1552 1551 1551 1550 1550
1536 1537 1538 1540 1540 1541 1541 1543 1544 1546 1547 1547 1548 1548 1550 1551 1551 1552 1553 1554 1554 1555 1555 1555 1556 1556 1556 1556 1556 1556 1556 1555 1555 1555 1555 1555 1555 1555 1555 1555 1554 1554 1554 1553 1553 1553 1552 1552 1551
1537 1537 1538 1540 1540 1541 1542 1542 1544 1546 1547 1547 1548 1549 1550 1551 1551 1552 1553 1554 1554 1555 1555 1556 1556 1556 1556 1557 1556 1556 1556 1556 1556 1556 1556 1556 1556 1556 1556 1556 1555 1555 1555 1555 1554 1554 1554 1553 1552
1535 1536 1539 1540 1540 1541 1542 1544 1544 1546 1546 1547 1548 1549 1550 1551 1551 1552 1553 1553 1554 1554 1555 1555 1555 1555 1556 1557 1556 1557 1557 1557 1556 1556 1556 1557 1556 1556 1556 1556 1556 1556 1555 1555 1555 1555 1555 1554 1554
1535 1537 1539 1540 1540 1540 1540 1542 1543 1545 1546 1546 1547 1548 1549 1550 1551 1551 1552 1553 1553 1554 1554 1555 1555 1555 1556 1556 1556 1556 1557 1556 1557 1557 1557 1557 1557 1556 1556 1556 1556 1556 1556 1556 1556 1556 1556 1555 1555
1537 1536 1538 1539 1538 1539 1540 1540 1542 1544 1545 1545 1546 1547 1548 1548 1549 1550 1551 1552 1552 1553 1553 1554 1555 1555 1555 1556 1556 1556 1556 1557 1556 1556 1556 1556 1556 1556 1556 1556 1556 1556 1556 1556 1556 1556 1556 1556 1555
1534 1536 1537 1537 1538 1539 1539 1538 1539 1542 1543 1543 1544 1545 1546 1547 1548 1549 1550 1551 1551 1552 1553 1553 1554 1554 1555 1555 1556 1556 1556 1556 1556 1556 1556 1556 1556 1556 1556 1556 1557 1556 1556 1556 1556 1556 1556 1556 1556
1534 1536 1536 1537 1538 1538 1537 1537 1536 1539 1541 1542 1542 1543 1545 1546 1547 1547 1548 1549 1550 1551 1551 1552 1553 1553 1554 1554 1555 1555 1555 1556 1556 1555 1555 1556 1556 1556 1556 1556 1556 1556 1556 1556 1556 1556 1556 1556 1556
1535 1536 1536 1537 1538 1537 1538 1536 1534 1536 1539 1541 1541 1542 1543 1544 1545 1545 1546 1547 1548 1549 1549 1550 1551 1552 1552 1553 1554 1554 1555 1555 1555 1555 1555 1555 1555 1555 1555 1556 1556 1556 1556 1555 1555 1555 1556 1556 1556
1536 1534 1536 1537 1537 1536 1537 1539 1531 1532 1535 1537 1539 1540 1541 1542 1543 1543 1544 1544 1545 1547 1548 1549 1550 1550 1551 1552 1553 1553 1554 1555 1555 1555 1554 1554 1554 1555 1555 1555 1555 1555 1555 1555 1555 1555 1555 1555 1556
1534 1535 1535 1535 1535 1535 1534 1536 1530 1530 1533 1533 1536 1538 1539 1540 1541 1541 1542 1542 1543 1544 1546 1547 1548 1549 1550 1551 1551 1552 1553 1553 1554 1554 1554 1554 1554 1554 1554 1554 1554 1554 1554 1554 1554 1554 1554 1555 1555
1535 1536 1535 1534 1533 1540 1534 1536 1533 1528 1530 1531 1534 1536 1537 1538 1539 1539 1540 1540 1541 1542 1543 1545 1546 1547 1548 1549 1550 1551 1551 1552 1552 1553 1553 1553 1553 1553 1553 1553 1553 1553 1553 1553 1553 1553 1553 1554 1554
1533 1535 1540 1541 1541 1538 1532 1534 1532 1529 1531 1532 1534 1535 1536 1537 1537 1537 1538 1538 1539 1540 1541 1543 1544 1546 1547 1548 1549 1549 1550 1550 1551 1551 1551 1552 1552 1552 1552 1552 1552 1552 1552 1552 1552 1552 1552 1553 1553
1532 1532 1541 1547 1544 1535 1533 1533 1529 1531 1533 1534 1534 1535 1536 1536 1536 1536 1536 1537 1537 1538 1539 1541 1543 1544 1545 1546 1547 1548 1548 1549 1549 1549 1550 1550 1550 1550 1550 1551 1551 1551 1551 1551 1551 1551 1551 1551 1551
1533 1533 1531 1535 1536 1539 1531 1528 1528 1530 1532 1533 1534 1534 1534 1535 1535 1535 1535 1535 1536 1536 1538 1539 1541 1542 1543 1544 1545 1546 1547 1547 1547 1548 1548 1548 1549 1549 1549 1549 1549 1549 1549 1549 1549 1550 1550 1550 1550
1533 1532 1534 1537 1543 1542 1534 1529 1527 1528 1529 1531 1532 1533 1534 1534 1534 1534 1534 1534 1535 1535 1536 1537 1539 1540 1541 1542 1543 1544 1545 1545 1546 1546 1546 1546 1547 1547 1547 1547 1548 1548 1548 1548 1548 1548 1548 1548 1548
1535 1535 1533 1533 1535 1540 1540 1532 1523 1526 1528 1530 1532 1533 1533 1533 1533 1533 1533 1533 1534 1534 1535 1536 1537 1538 1539 1540 1541 1542 1542 1543 1544 1544 1544 1544 1544 1545 1545 1545 1545 1546 1546 1546 1546 1546 1546 1546 1546
1531 1530 1531 1537 1535 1535 1536 1533 1525 1527 1529 1531 1532 1533 1533 1533 1533 1533 1533 1533 1533 1533 1534 1534 1535 1536 1537 1538 1539 1539 1540 1541 1541 1541 1542 1542 1542 1542 1543 1543 1543 1543 1544 1544 1544 1544 1544 1545 1544